Regional Weather Roundup
Issued by NWS

Current Version | Previous Version | Text Only | Print | Product List | Glossary On
Versions: 1 2 3 4 5 6 7 8 9 10 11 12 13 14 15 16 17 18 19 20 21 22 23 24 25 26 27
000
ASUS42 KTBW 281817
RWRFL
FLORIDA REGIONAL WEATHER ROUNDUP
NATIONAL WEATHER SERVICE TAMPA BAY RUSKIN FL
200 PM EDT SAT MAY 28 2016

NOTE: "FAIR" INDICATES FEW OR NO CLOUDS BELOW 12,000 FEET WITH NO
SIGNIFICANT WEATHER AND/OR OBSTRUCTIONS TO VISIBILITY.

FLZ001>010-012>015-112-114-115-281900-
PANHANDLE FLORIDA

CITY           SKY/WX    TMP DP  RH WIND       PRES   REMARKS
PENSACOLA      MOSUNNY   83  68  60 SE13      30.05S
PENSACOLA NAS  PTSUNNY   82  68  62 SE9       30.05S
CRESTVIEW      PTSUNNY   84  69  60 VRB7      30.06F
DUKE FIELD     FAIR      85  68  57 S15       30.04F
VALPARAISO     PTSUNNY   85  72  66 SE13      30.05F
MARY ESTHER    PTSUNNY   83  72  69 SE15      30.04S
PANAMA CITY    PTSUNNY   82  72  71 S15       30.03F
TYNDALL AFB    CLOUDY    82  73  72 S13       30.04S
APALACHICOLA   MOSUNNY   82  73  74 SE12      30.05F

STATION/POSITION SKY/WX   TEMP    WIND        PRES    WAVE   SWELL
                          AIR SEA DIR/SP/G            HT/PER HT/PER
                          (F)     (DEG/KT/KT) (MB)    (FT/S) (FT/S)
30.1N   87.6W              78 80  110/ 10/ 12 1016.9R   2/ 6   2/ 6
29.2N   88.2W              78 78  130/ 12/ 14 1016.6R
28.8N   86.0W              79 81  130/ 12/ 14 1017.1F   2/ 6
PANAMA CITY BEAC           78 80  170/ 12/ 14 1018.0R
TOWER C                    77     130/  9/ 10 1018.3F
28.5N   84.5W              78 79  120/ 10/ 12 1017.0F   2/ 4

$$
FLZ011-016>038-118-127-128-134-139-239-281900-
NORTH FLORIDA

CITY           SKY/WX    TMP DP  RH WIND       PRES   REMARKS
MARIANNA       PTSUNNY   87  63  44 E8        30.04F
TALLAHASSEE    PTSUNNY   88  61  40 SE6       30.03F
PERRY          MOSUNNY   87  65  46 N3        30.05F
LIVE OAK       FAIR      88  66  48 CALM      30.07F
LAKE CITY      FAIR      86  64  48 NE8       30.04F
GAINESVILLE    MOSUNNY   88  64  44 VRB6      30.03F
WILLISTON      FAIR      90  64  43 NW6       30.03F
PALATKA        FAIR      88  64  45 N10       30.02F
MAYPORT NAS    MOSUNNY   82  71  69 NE18G25   30.04F
JACKSONVILLE   PTSUNNY   83  69  62 NE17      30.03F
JAX NAS        CLOUDY    85  68  56 NE15      30.04F
JAX CECIL      PTSUNNY   84  66  54 NE9G17    30.03F
FERNANDINA BEA PTSUNNY   84  70  61 NE15G25   30.04S
ST AUGUSTINE   PTSUNNY   82  72  69 N18       30.04F
PALM COAST     PTSUNNY   84  70  61 N15G21    30.02F

STATION/POSITION SKY/WX   TEMP    WIND        PRES    WAVE   SWELL
                          AIR SEA DIR/SP/G            HT/PER HT/PER
                          (F)     (DEG/KT/KT) (MB)    (FT/S) (FT/S)
SHELL POINT                80     150/  8/ 10 1017.2
KEATON BEACH               79     240/  9/ 10 1017.0F
CEDAR KEY                  81     250/  5/  8 1017.3F
FERNANDINA                 80 80  360/ 10/ 19 1017.9F
30.7N   81.3W                 78                N/A     5/ 8   2/11
MAYPORT                    78 78   40/ 19/ 21 1018.0F
31.4N   80.9W              74 76   50/ 17/ 21 1017.2F   5/ 9   2/ 9
ST AUGUSTINE               77 80  360/ 18/ 21 1017.7F

$$
FLZ040-043>046-052-053-057-058-063-144-281900-
INTERIOR CENTRAL FLORIDA

CITY           SKY/WX    TMP DP  RH WIND       PRES   REMARKS
OCALA          MOSUNNY   86  63  45 N7        30.04F
THE VILLAGES     N/A     88  66  48 NW7       29.92F
LEESBURG       PTSUNNY   88  67  49 S8        30.03F
SANFORD        SUNNY     89  63  41 MISG      30.00F
ORLANDO EXEC   MOSUNNY   90  63  40 CALM      30.01F
ORLANDO INTL   MOSUNNY   89  63  41 NW6       30.01F
KISSIMMEE      MOSUNNY   88  64  45 W5        30.02F
WINTER HAVEN   PTSUNNY   88  62  41 CALM      30.03F
LAKELAND       PTSUNNY   86  66  51 CALM      30.03F
BARTOW         PTSUNNY   84  63  48 VRB3      30.04S

$$
FLZ041-047-054-059-064-141-147-281900-
EAST CENTRAL FLORIDA

CITY           SKY/WX    TMP DP  RH WIND       PRES   REMARKS
ORMOND BEACH   MOSUNNY   82  70  65 NE15G21   30.03F
DAYTONA BEACH  MOSUNNY   85  71  63 N14       30.02F
DELAND           N/A     88  64  45 NW8       30.02F
NEW SMYRNA BEA MOSUNNY   81  72  74 N20G26    30.02F
JFK SPACE CTR  MOSUNNY   84  69  61 NE13      30.00F
TITUSVILLE     MOSUNNY   88  70  55 N18       30.01F
CAPE CANAVERAL MOSUNNY   85  69  57 NE14      30.00F
PATRICK AFB    SUNNY     84  72  67 NE9       30.01F
MELBOURNE      MOSUNNY   85  71  63 E9        30.01F
VERO BEACH     SUNNY     87  66  49 MISG      30.02F
FT PIERCE      SUNNY     86  68  54 E9        30.01F
STUART         MOSUNNY   86  66  51 NE8       30.03F

STATION/POSITION SKY/WX   TEMP    WIND        PRES    WAVE   SWELL
                          AIR SEA DIR/SP/G            HT/PER HT/PER
                          (F)     (DEG/KT/KT) (MB)    (FT/S) (FT/S)
28.5N   80.2W              78 79  320/ 12/ 16 1016.8F
28.9N   78.5W              79 79  240/ 10/ 12 1015.5F
TRIDENT PIER               85 81  270/  4/  7 1016.6F
28.4N   80.5W                 81                N/A     2/10
27.5N   80.2W                 81                N/A     3/ 9

$$
FLZ050-056-061-142-242-148-248-149-249-151-251-155-255-
160-260-281900-
WEST CENTRAL FLORIDA

CITY           SKY/WX    TMP DP  RH WIND       PRES   REMARKS
CRYSTAL RIVER  FAIR      88  68  51 NW7       30.03F
INVERNESS      FAIR      86  66  51 CALM      30.03F
BROOKSVILLE    SUNNY     90  65  43 NE8       30.03F
ZEPHYRHILLS    PTSUNNY   89  62  40 N7        30.02F
CLEARWATER AIR PTSUNNY   82  70  65 NW9       30.02F
ST PETE CLEARW SUNNY     88  67  49 VRB3      30.02F
TAMPA INTL     MOSUNNY   86  69  56 SW7       30.02F
TAMPA EXEC     MOSUNNY   93  70  46 N5        30.02F HX  99
PLANT CITY     MOSUNNY   91  68  46 S5        30.04F HX  95
MACDILL AFB      N/A    N/A N/A N/A MISG        N/A
PETER O KNIGHT SUNNY     90  70  51 SW3       30.02F HX  95
ST PETERSBURG  SUNNY     88  65  46 VRB3      30.00F
SARASOTA       LGT RAIN  83  70  64 NW7       30.01F
VENICE         NOT AVBL

STATION/POSITION SKY/WX   TEMP    WIND        PRES    WAVE   SWELL
                          AIR SEA DIR/SP/G            HT/PER HT/PER
                          (F)     (DEG/KT/KT) (MB)    (FT/S) (FT/S)
27.3N   84.2W                 81                N/A     2/ 4
CLEARWATER BEACH           80 82  330/ 10/ 10 1017.3F
MIDDLE TAMPA BAY NOT AVBL
VENICE                     81 81  260/  5/  6 1016.4F

$$
FLZ066-069-070-075>078-162-262-165-265-281900-
SOUTHWEST FLORIDA AND KEYS

CITY           SKY/WX    TMP DP  RH WIND       PRES   REMARKS
PUNTA GORDA    LGT RAIN  82  70  66 E20G25    30.03S
FT MYERS       PTSUNNY   82  67  60 E12G24    30.00S THUNDER
SOUTHWEST INTL TSTM      75  70  84 NE10      30.01F
NAPLES         PTSUNNY   86  71  60 W9        30.00F
MARCO ISLAND   MOSUNNY   90  68  48 SW6       30.01F
MARATHON       SUNNY     88  70  55 SE6       30.02F
KEY WEST NAS   MOSUNNY   86  69  56 SE8       30.02F
KEY WEST INTL  MOSUNNY   85  71  63 SE8       30.02F

STATION/POSITION SKY/WX   TEMP    WIND        PRES    WAVE   SWELL
                          AIR SEA DIR/SP/G            HT/PER HT/PER
                          (F)     (DEG/KT/KT) (MB)    (FT/S) (FT/S)
NAPLES                        83              1016.6F
26.0N   85.6W              80 82  110/  8/ 10 1016.6F   2/ 4   2/ 4
DRY TORTUGAS               81     100/  8/  9 1016.6F
SAND KEY                   81     120/  7/  8 1016.8F
LONG KEY                   84 84  230/  1/  2 1016.8F

$$
FLZ067-068-071>074-168-172>174-281900-
SOUTHEAST FLORIDA

CITY           SKY/WX    TMP DP  RH WIND       PRES   REMARKS
W PALM BEACH   MOSUNNY   87  67  51 E9        30.02F
BOCA RATON     SUNNY     79  72  78 SW6       30.02F
FT LAUDER-EXEC LGT RAIN  74  69  85 E3        30.02F
FT LAUDERDALE  LGT RAIN  73  69  87 CALM      30.01F
POMPANO BEACH  CLOUDY    74  71  91 CALM      30.02F
PEMBROKE PINES CLOUDY    75  69  81 N3        30.03F
OPA LOCKA      CLOUDY    81  68  64 NE7       30.02F
MIAMI          CLOUDY    83  70  64 E8        30.01F
WEST KENDALL     N/A     84  69  60 NE8       30.01F
HOMESTEAD      PTSUNNY   85  71  64 E10       30.01F

STATION/POSITION SKY/WX   TEMP    WIND        PRES    WAVE   SWELL
                          AIR SEA DIR/SP/G            HT/PER HT/PER
                          (F)     (DEG/KT/KT) (MB)    (FT/S) (FT/S)
PORT EVERGLADES            74     270/  1/  3 1016.4F
VIRGINIA KEY               77 81   40/  5/  7 1017.9F
LAKE WORTH                 81 82  100/  5/  7 1017.0F
FOWEY ROCKS                77 82   20/  9/  9 1017.1F
SETTLEMENT POINT           80     270/  6/  7 1017.6F

$$





USA.gov is the U.S. government's official web portal to all federal, state and local government web resources and services.